Weather History for KSDF - October, 2013

Change the Weather History Date:

Saturday, October 26, 2013

  Actual Average Record
Temperature  
Mean Temperature 45 °F 56 °F  
Max Temperature 58 °F 67 °F 85 °F (1940)
Min Temperature 31 °F 46 °F 25 °F (1962)
Degree Days  
Heating Degree Days 20 9  
Month to date heating degree days 186 161  
Since 1 July heating degree days 192 191  
Cooling Degree Days 0 1  
Month to date cooling degree days 53 41  
Year to date cooling degree days 1628 1608  
Moisture  
Dew Point 31 °F    
Average Humidity 59    
Maximum Humidity 78    
Minimum Humidity 40    
Precipitation  
Precipitation 0.00 in 0.10 in 1.20 in (1919)
Month to date precipitation 7.86 2.70  
Year to date precipitation 42.37 36.97  
Snow  
Snow 0.00 in 0.00 in T in (1957)
Month to date snowfall T 0.1  
Since 1 July snowfall T 0.1  
Since 1 September snowfall T 0.1  
Snow Depth 0.00 in    
Sea Level Pressure  
Sea Level Pressure 30.15 in    
Wind  
Wind Speed 9 mph (SSW)    
Max Wind Speed 21 mph    
Max Gust Speed 28 mph    
Visibility 10 miles    
Events      
T = Trace of Precipitation, MM = Missing Value Source: NWS Daily Summary

Daily Weather History Graph

Daily Weather History Graph

Search for Another Location

Airport or City:

Trip Planner

Search our weather history database for the weather conditions in past years. The results will help you decide how hot, cold, wet, or windy it might be!

Date:

Astronomy

Oct. 26, 2013 Rise Set
Actual Time 8:02 AM EDT 6:50 PM EDT
Civil Twilight 7:35 AM EDT 7:17 PM EDT
Nautical Twilight 7:04 AM EDT 7:48 PM EDT
Astronomical Twilight 6:34 AM EDT 8:18 PM EDT
Moon 12:11 AM EDT (10/26) 2:17 PM EDT (10/26)
Length of Visible Light 11h 41m
Length of Day
10h 47m
Waning Gibbous, 53% of the Moon is Illuminated
Oct 26
Waning Gibbous
Oct 26
Last Quarter
Nov 3
New
Nov 10
First Quarter
Nov 17
Full

Hourly Weather History & Observations

Time (EDT) Temp. Windchill Dew Point Humidity Pressure Visibility Wind Dir Wind Speed Gust Speed Precip Events Conditions
12:56 AM 37.9 °F 34.4 °F 27.0 °F 65% 30.31 in 10.0 mi South 4.6 mph - N/A   Clear
1:56 AM 37.0 °F 32.4 °F 26.1 °F 65% 30.30 in 10.0 mi South 5.8 mph - N/A   Clear
2:56 AM 35.1 °F 31.0 °F 27.0 °F 72% 30.29 in 10.0 mi SSE 4.6 mph - N/A   Clear
3:56 AM 32.0 °F 28.7 °F 27.0 °F 82% 30.27 in 10.0 mi ESE 3.5 mph - N/A   Clear
4:56 AM 33.1 °F 27.7 °F 27.0 °F 78% 30.25 in 10.0 mi SE 5.8 mph - N/A   Clear
5:56 AM 34.0 °F 29.8 °F 26.1 °F 73% 30.25 in 10.0 mi SSE 4.6 mph - N/A   Clear
6:56 AM 32.0 °F 27.5 °F 26.1 °F 79% 30.25 in 10.0 mi ESE 4.6 mph - N/A   Clear
7:56 AM 32.0 °F 28.7 °F 26.1 °F 79% 30.24 in 10.0 mi East 3.5 mph - N/A   Clear
8:56 AM 36.0 °F 30.3 °F 28.0 °F 73% 30.22 in 9.0 mi SSE 6.9 mph - N/A   Partly Cloudy
9:56 AM 41.0 °F 35.2 °F 28.0 °F 60% 30.20 in 10.0 mi SSW 9.2 mph - N/A   Mostly Cloudy
10:56 AM 44.1 °F 40.1 °F 28.9 °F 55% 30.17 in 10.0 mi SSW 6.9 mph - N/A   Overcast
11:56 AM 45.0 °F 39.3 °F 28.9 °F 53% 30.16 in 10.0 mi SW 11.5 mph - N/A   Overcast
12:56 PM 48.0 °F - 30.0 °F 50% 30.11 in 10.0 mi SSW 12.7 mph - N/A   Overcast
1:56 PM 52.0 °F - 30.9 °F 45% 30.08 in 10.0 mi SW 11.5 mph - N/A   Mostly Cloudy
2:56 PM 55.9 °F - 32.0 °F 40% 30.05 in 10.0 mi SW 17.3 mph 25.3 mph N/A   Scattered Clouds
3:56 PM 57.0 °F - 33.1 °F 40% 30.03 in 10.0 mi SW 17.3 mph 23.0 mph N/A   Scattered Clouds
4:56 PM 57.9 °F - 34.0 °F 41% 29.99 in 10.0 mi SSW 15.0 mph 21.9 mph N/A   Scattered Clouds
5:56 PM 57.0 °F - 35.1 °F 44% 30.01 in 10.0 mi SW 13.8 mph - N/A   Mostly Cloudy
6:56 PM 54.0 °F - 36.0 °F 51% 30.04 in 10.0 mi WSW 11.5 mph - N/A   Mostly Cloudy
7:56 PM 52.0 °F - 37.0 °F 57% 30.06 in 10.0 mi SW 9.2 mph - N/A   Scattered Clouds
8:56 PM 51.1 °F - 37.0 °F 59% 30.06 in 10.0 mi SW 8.1 mph - N/A   Partly Cloudy
9:56 PM 50.0 °F - 37.9 °F 63% 30.07 in 10.0 mi WSW 9.2 mph - N/A   Partly Cloudy
10:56 PM 48.9 °F - 39.0 °F 69% 30.09 in 10.0 mi West 9.2 mph - N/A   Clear
11:56 PM 45.0 °F 42.6 °F 37.9 °F 76% 30.10 in 10.0 mi West 4.6 mph - N/A   Clear